11/07/2024 08:00:00,0.55
11/07/2024 08:15:00,0.55
11/07/2024 08:30:00,0.55
11/07/2024 08:45:00,0.548
11/07/2024 09:00:00,0.549
11/07/2024 09:15:00,0.548
11/07/2024 09:30:00,0.549
11/07/2024 09:45:00,0.548
11/07/2024 10:00:00,0.547
11/07/2024 10:15:00,0.547
11/07/2024 10:30:00,0.546
11/07/2024 10:45:00,0.545
11/07/2024 11:00:00,0.544
11/07/2024 11:15:00,0.544
11/07/2024 11:30:00,0.545
11/07/2024 11:45:00,0.545
11/07/2024 12:00:00,0.544
11/07/2024 12:15:00,0.542
11/07/2024 12:30:00,0.542
11/07/2024 12:45:00,0.542
11/07/2024 13:00:00,0.543
11/07/2024 13:15:00,0.542
11/07/2024 13:30:00,0.541
11/07/2024 13:45:00,0.539
11/07/2024 14:00:00,0.539
11/07/2024 14:15:00,0.539
11/07/2024 14:30:00,0.539
11/07/2024 14:45:00,0.539
11/07/2024 15:00:00,0.539
11/07/2024 15:15:00,0.537
11/07/2024 15:30:00,0.538
11/07/2024 15:45:00,0.537
11/07/2024 16:00:00,0.537
11/07/2024 16:15:00,0.535
11/07/2024 16:30:00,0.535
11/07/2024 16:45:00,0.536
11/07/2024 17:00:00,0.536
11/07/2024 17:15:00,0.535
11/07/2024 17:30:00,0.534
11/07/2024 17:45:00,0.533
11/07/2024 18:00:00,0.533
11/07/2024 18:15:00,0.533
11/07/2024 18:30:00,0.532
11/07/2024 18:45:00,0.532
11/07/2024 19:00:00,0.531
11/07/2024 19:15:00,0.53
11/07/2024 19:30:00,0.529
11/07/2024 19:45:00,0.529
11/07/2024 20:00:00,0.528
11/07/2024 20:15:00,0.527
11/07/2024 20:30:00,0.527
11/07/2024 20:45:00,0.526
11/07/2024 21:00:00,0.526
11/07/2024 21:15:00,0.526
11/07/2024 21:30:00,0.525
11/07/2024 21:45:00,0.525
11/07/2024 22:00:00,0.524
11/07/2024 22:15:00,0.524
11/07/2024 22:30:00,0.524
11/07/2024 22:45:00,0.523
11/07/2024 23:00:00,0.523
11/07/2024 23:15:00,0.522
11/07/2024 23:30:00,0.522
11/07/2024 23:45:00,0.522
12/07/2024 00:00:00,0.521
12/07/2024 00:15:00,0.521
12/07/2024 00:30:00,0.52
12/07/2024 00:45:00,0.521
12/07/2024 01:00:00,0.52
12/07/2024 01:15:00,0.52
12/07/2024 01:30:00,0.52
12/07/2024 01:45:00,0.52
12/07/2024 02:00:00,0.52
12/07/2024 02:15:00,0.519
12/07/2024 02:30:00,0.52
12/07/2024 02:45:00,0.519
12/07/2024 03:00:00,0.519
12/07/2024 03:15:00,0.518
12/07/2024 03:30:00,0.517
12/07/2024 03:45:00,0.517
12/07/2024 04:00:00,0.518
12/07/2024 04:15:00,0.517
12/07/2024 04:30:00,0.516
12/07/2024 04:45:00,0.516
12/07/2024 05:00:00,0.515
12/07/2024 05:15:00,0.514
12/07/2024 05:30:00,0.514
12/07/2024 05:45:00,0.513
12/07/2024 06:00:00,0.513
12/07/2024 06:15:00,0.512
12/07/2024 06:30:00,0.511
12/07/2024 06:45:00,0.511
12/07/2024 07:00:00,0.511
12/07/2024 07:15:00,0.511
12/07/2024 07:30:00,0.511
12/07/2024 07:45:00,0.511
12/07/2024 08:00:00,0.511
12/07/2024 08:15:00,0.51
12/07/2024 08:30:00,0.51
12/07/2024 08:45:00,0.51
12/07/2024 09:00:00,0.51
12/07/2024 09:15:00,0.508
12/07/2024 09:30:00,0.508
12/07/2024 09:45:00,0.508
12/07/2024 10:00:00,0.507
12/07/2024 10:15:00,0.507
12/07/2024 10:30:00,0.506
12/07/2024 10:45:00,0.506
12/07/2024 11:00:00,0.505
12/07/2024 11:15:00,0.504
12/07/2024 11:30:00,0.504
12/07/2024 11:45:00,0.504
12/07/2024 12:00:00,0.504
12/07/2024 12:15:00,0.504
12/07/2024 12:30:00,0.504
12/07/2024 12:45:00,0.504
12/07/2024 13:00:00,0.504
12/07/2024 13:15:00,0.503
12/07/2024 13:30:00,0.503
12/07/2024 13:45:00,0.502
12/07/2024 14:00:00,0.502
12/07/2024 14:15:00,0.502
12/07/2024 14:30:00,0.501
12/07/2024 14:45:00,0.501
12/07/2024 15:00:00,0.501
12/07/2024 15:15:00,0.501
12/07/2024 15:30:00,0.501
12/07/2024 15:45:00,0.501
12/07/2024 16:00:00,0.501
12/07/2024 16:15:00,0.5
12/07/2024 16:30:00,0.498
12/07/2024 16:45:00,0.498
12/07/2024 17:00:00,0.497
12/07/2024 17:15:00,0.496
12/07/2024 17:30:00,0.495
12/07/2024 17:45:00,0.495
12/07/2024 18:00:00,0.495
12/07/2024 18:15:00,0.495
12/07/2024 18:30:00,0.495
12/07/2024 18:45:00,0.494
12/07/2024 19:00:00,0.494
12/07/2024 19:15:00,0.494
12/07/2024 19:30:00,0.494
12/07/2024 19:45:00,0.494
12/07/2024 20:00:00,0.493
12/07/2024 20:15:00,0.492
12/07/2024 20:30:00,0.492
12/07/2024 20:45:00,0.491
12/07/2024 21:00:00,0.491
12/07/2024 21:15:00,0.49
12/07/2024 21:30:00,0.489
12/07/2024 21:45:00,0.489
12/07/2024 22:00:00,0.488
12/07/2024 22:15:00,0.488
12/07/2024 22:30:00,0.488
12/07/2024 22:45:00,0.487
12/07/2024 23:00:00,0.487
12/07/2024 23:15:00,0.487
12/07/2024 23:30:00,0.486
12/07/2024 23:45:00,0.486
13/07/2024 00:00:00,0.485
13/07/2024 00:15:00,0.485
13/07/2024 00:30:00,0.485
13/07/2024 00:45:00,0.485
13/07/2024 01:00:00,0.485
13/07/2024 01:15:00,0.485
13/07/2024 01:30:00,0.485
13/07/2024 01:45:00,0.485
13/07/2024 02:00:00,0.484
13/07/2024 02:15:00,0.483
13/07/2024 02:30:00,0.483
13/07/2024 02:45:00,0.483
13/07/2024 03:00:00,0.483
13/07/2024 03:15:00,0.482
13/07/2024 03:30:00,0.482
13/07/2024 03:45:00,0.482
13/07/2024 04:00:00,0.481
13/07/2024 04:15:00,0.48
13/07/2024 04:30:00,0.48
13/07/2024 04:45:00,0.479
13/07/2024 05:00:00,0.479
13/07/2024 05:15:00,0.479
13/07/2024 05:30:00,0.479
13/07/2024 05:45:00,0.479
13/07/2024 06:00:00,0.479
13/07/2024 06:15:00,0.479
13/07/2024 06:30:00,0.478
13/07/2024 06:45:00,0.478
13/07/2024 07:00:00,0.477
13/07/2024 07:15:00,0.477
13/07/2024 07:30:00,0.476
13/07/2024 07:45:00,0.476
13/07/2024 08:00:00,0.475
13/07/2024 08:15:00,0.474
13/07/2024 08:30:00,0.474
13/07/2024 08:45:00,0.474
13/07/2024 09:00:00,0.474
13/07/2024 09:15:00,0.474
13/07/2024 09:30:00,0.473
13/07/2024 09:45:00,0.473
13/07/2024 10:00:00,0.473
13/07/2024 10:15:00,0.472
13/07/2024 10:30:00,0.471
13/07/2024 10:45:00,0.471
13/07/2024 11:00:00,0.471
13/07/2024 11:15:00,0.471
13/07/2024 11:30:00,0.469
13/07/2024 11:45:00,0.468
13/07/2024 12:00:00,0.466
13/07/2024 12:15:00,0.464
13/07/2024 12:30:00,0.463
13/07/2024 12:45:00,0.463
13/07/2024 13:00:00,0.463
13/07/2024 13:15:00,0.463
13/07/2024 13:30:00,0.463
13/07/2024 13:45:00,0.463
13/07/2024 14:00:00,0.463
13/07/2024 14:15:00,0.462
13/07/2024 14:30:00,0.462
13/07/2024 14:45:00,0.462
13/07/2024 15:00:00,0.462
13/07/2024 15:15:00,0.461
13/07/2024 15:30:00,0.461
13/07/2024 15:45:00,0.461
13/07/2024 16:00:00,0.461
13/07/2024 16:15:00,0.461
13/07/2024 16:30:00,0.461
13/07/2024 16:45:00,0.46
13/07/2024 17:00:00,0.46
13/07/2024 17:15:00,0.46
13/07/2024 17:30:00,0.46
13/07/2024 17:45:00,0.46
13/07/2024 18:00:00,0.46
13/07/2024 18:15:00,0.459
13/07/2024 18:30:00,0.459
13/07/2024 18:45:00,0.458
13/07/2024 19:00:00,0.458
13/07/2024 19:15:00,0.457
13/07/2024 19:30:00,0.457
13/07/2024 19:45:00,0.457
13/07/2024 20:00:00,0.456
13/07/2024 20:15:00,0.456
13/07/2024 20:30:00,0.456
13/07/2024 20:45:00,0.455
13/07/2024 21:00:00,0.454
13/07/2024 21:15:00,0.454
13/07/2024 21:30:00,0.454
13/07/2024 21:45:00,0.453
13/07/2024 22:00:00,0.453
13/07/2024 22:15:00,0.452
13/07/2024 22:30:00,0.452
13/07/2024 22:45:00,0.452
13/07/2024 23:00:00,0.451
13/07/2024 23:15:00,0.451
13/07/2024 23:30:00,0.451
13/07/2024 23:45:00,0.45
14/07/2024 00:00:00,0.45
14/07/2024 00:15:00,0.449
14/07/2024 00:30:00,0.449
14/07/2024 00:45:00,0.449
14/07/2024 01:00:00,0.449
14/07/2024 01:15:00,0.449
14/07/2024 01:30:00,0.449
14/07/2024 01:45:00,0.449
14/07/2024 02:00:00,0.448
14/07/2024 02:15:00,0.448
14/07/2024 02:30:00,0.448
14/07/2024 02:45:00,0.448
14/07/2024 03:00:00,0.448
14/07/2024 03:15:00,0.448
14/07/2024 03:30:00,0.447
14/07/2024 03:45:00,0.447
14/07/2024 04:00:00,0.446
14/07/2024 04:15:00,0.446
14/07/2024 04:30:00,0.446
14/07/2024 04:45:00,0.445
14/07/2024 05:00:00,0.445
14/07/2024 05:15:00,0.445
14/07/2024 05:30:00,0.445
14/07/2024 05:45:00,0.445
14/07/2024 06:00:00,0.444
14/07/2024 06:15:00,0.444
14/07/2024 06:30:00,0.444
14/07/2024 06:45:00,0.443
14/07/2024 07:00:00,0.443
14/07/2024 07:15:00,0.443
14/07/2024 07:30:00,0.443
14/07/2024 07:45:00,0.443
14/07/2024 08:00:00,0.443
14/07/2024 08:15:00,0.443
14/07/2024 08:30:00,0.443
14/07/2024 08:45:00,0.442
14/07/2024 09:00:00,0.441
14/07/2024 09:15:00,0.44
14/07/2024 09:30:00,0.439
14/07/2024 09:45:00,0.439
14/07/2024 10:00:00,0.438
14/07/2024 10:15:00,0.437
14/07/2024 10:30:00,0.436
14/07/2024 10:45:00,0.436
14/07/2024 11:00:00,0.435
14/07/2024 11:15:00,0.435
14/07/2024 11:30:00,0.434
14/07/2024 11:45:00,0.434
14/07/2024 12:00:00,0.434
14/07/2024 12:15:00,0.433
14/07/2024 12:30:00,0.433
14/07/2024 12:45:00,0.433
14/07/2024 13:00:00,0.433
14/07/2024 13:15:00,0.432
14/07/2024 13:30:00,0.431
14/07/2024 13:45:00,0.431
14/07/2024 14:00:00,0.431
14/07/2024 14:15:00,0.43
14/07/2024 14:30:00,0.43
14/07/2024 14:45:00,0.43
14/07/2024 15:00:00,0.429
14/07/2024 15:15:00,0.429
14/07/2024 15:30:00,0.427
14/07/2024 15:45:00,0.427
14/07/2024 16:00:00,0.426
14/07/2024 16:15:00,0.426
14/07/2024 16:30:00,0.427
14/07/2024 16:45:00,0.428
14/07/2024 17:00:00,0.428
14/07/2024 17:15:00,0.428
14/07/2024 17:30:00,0.428
14/07/2024 17:45:00,0.429
14/07/2024 18:00:00,0.429
14/07/2024 18:15:00,0.429
14/07/2024 18:30:00,0.429
14/07/2024 18:45:00,0.429
14/07/2024 19:00:00,0.429
14/07/2024 19:15:00,0.428
14/07/2024 19:30:00,0.428
14/07/2024 19:45:00,0.428
14/07/2024 20:00:00,0.428
14/07/2024 20:15:00,0.428
14/07/2024 20:30:00,0.427
14/07/2024 20:45:00,0.427
14/07/2024 21:00:00,0.426
14/07/2024 21:15:00,0.426
14/07/2024 21:30:00,0.425
14/07/2024 21:45:00,0.425
14/07/2024 22:00:00,0.423
14/07/2024 22:15:00,0.422
14/07/2024 22:30:00,0.421
14/07/2024 22:45:00,0.421
14/07/2024 23:00:00,0.42
14/07/2024 23:15:00,0.42
14/07/2024 23:30:00,0.42
14/07/2024 23:45:00,0.42
15/07/2024 00:00:00,0.419
15/07/2024 00:15:00,0.419
15/07/2024 00:30:00,0.419
15/07/2024 00:45:00,0.419
15/07/2024 01:00:00,0.419
15/07/2024 01:15:00,0.419
15/07/2024 01:30:00,0.419
15/07/2024 01:45:00,0.419
15/07/2024 02:00:00,0.419
15/07/2024 02:15:00,0.419
15/07/2024 02:30:00,0.419
15/07/2024 02:45:00,0.419
15/07/2024 03:00:00,0.419
15/07/2024 03:15:00,0.419
15/07/2024 03:30:00,0.419
15/07/2024 03:45:00,0.418
15/07/2024 04:00:00,0.418
15/07/2024 04:15:00,0.417
15/07/2024 04:30:00,0.417
15/07/2024 04:45:00,0.417
15/07/2024 05:00:00,0.417
15/07/2024 05:15:00,0.418
15/07/2024 05:30:00,0.418
15/07/2024 05:45:00,0.418
15/07/2024 06:00:00,0.418
15/07/2024 06:15:00,0.418
15/07/2024 06:30:00,0.418
15/07/2024 06:45:00,0.417
15/07/2024 07:00:00,0.417
15/07/2024 07:15:00,0.417
15/07/2024 07:30:00,0.416
15/07/2024 07:45:00,0.416
15/07/2024 08:00:00,0.416
15/07/2024 08:15:00,0.416
15/07/2024 08:30:00,0.416
15/07/2024 08:45:00,0.416
15/07/2024 09:00:00,0.416
15/07/2024 09:15:00,0.416
15/07/2024 09:30:00,0.416
15/07/2024 09:45:00,0.416
15/07/2024 10:00:00,0.416
15/07/2024 10:15:00,0.416
15/07/2024 10:30:00,0.416
15/07/2024 10:45:00,0.416
15/07/2024 11:00:00,0.416
15/07/2024 11:15:00,0.416
15/07/2024 11:30:00,0.416
15/07/2024 11:45:00,0.415
15/07/2024 12:00:00,0.416
15/07/2024 12:15:00,0.415
15/07/2024 12:30:00,0.415
15/07/2024 12:45:00,0.415
15/07/2024 13:00:00,0.415
15/07/2024 13:15:00,0.415
15/07/2024 13:30:00,0.414
15/07/2024 13:45:00,0.414
15/07/2024 14:00:00,0.414
15/07/2024 14:15:00,0.413
15/07/2024 14:30:00,0.413
15/07/2024 14:45:00,0.412
15/07/2024 15:00:00,0.412
15/07/2024 15:15:00,0.411
15/07/2024 15:30:00,0.412
15/07/2024 15:45:00,0.412
15/07/2024 16:00:00,0.411
15/07/2024 16:15:00,0.411
15/07/2024 16:30:00,0.411
15/07/2024 16:45:00,0.411
15/07/2024 17:00:00,0.411
15/07/2024 17:15:00,0.411
15/07/2024 17:30:00,0.41
15/07/2024 17:45:00,0.41
15/07/2024 18:00:00,0.41
15/07/2024 18:15:00,0.41
15/07/2024 18:30:00,0.41
15/07/2024 18:45:00,0.409
15/07/2024 19:00:00,0.409
15/07/2024 19:15:00,0.409
15/07/2024 19:30:00,0.409
15/07/2024 19:45:00,0.409
15/07/2024 20:00:00,0.409
15/07/2024 20:15:00,0.408
15/07/2024 20:30:00,0.408
15/07/2024 20:45:00,0.408
15/07/2024 21:00:00,0.408
15/07/2024 21:15:00,0.409
15/07/2024 21:30:00,0.409
15/07/2024 21:45:00,0.409
15/07/2024 22:00:00,0.409
15/07/2024 22:15:00,0.409
15/07/2024 22:30:00,0.409
15/07/2024 22:45:00,0.409
15/07/2024 23:00:00,0.409
15/07/2024 23:15:00,0.409
15/07/2024 23:30:00,0.408
15/07/2024 23:45:00,0.408
16/07/2024 00:00:00,0.409
16/07/2024 00:15:00,0.409
16/07/2024 00:30:00,0.409
16/07/2024 00:45:00,0.409
16/07/2024 01:00:00,0.41
16/07/2024 01:15:00,0.41
16/07/2024 01:30:00,0.41
16/07/2024 01:45:00,0.41
16/07/2024 02:00:00,0.41
16/07/2024 02:15:00,0.411
16/07/2024 02:30:00,0.411
16/07/2024 02:45:00,0.411
16/07/2024 03:00:00,0.411
16/07/2024 03:15:00,0.411
16/07/2024 03:30:00,0.411
16/07/2024 03:45:00,0.411
16/07/2024 04:00:00,0.411
16/07/2024 04:15:00,0.411
16/07/2024 04:30:00,0.411
16/07/2024 04:45:00,0.411
16/07/2024 05:00:00,0.41
16/07/2024 05:15:00,0.41
16/07/2024 05:30:00,0.41
16/07/2024 05:45:00,0.41
16/07/2024 06:00:00,0.409
16/07/2024 06:15:00,0.409
16/07/2024 06:30:00,0.41
16/07/2024 06:45:00,0.412
16/07/2024 07:00:00,0.412
16/07/2024 07:15:00,0.413
